| time (UTC) | temp F | wind direction | speed knots | gust knots | rain 1hr in | rain 24hr in | rain mn in | humidity % | barometer mb |
| 20260507210238 | 68 | 317 | 1.7 | 4.3 | 0.00 | 0.00 | 0.00 | 32 | 1009.3 |
| 20260507203214 | 69 | 311 | 0.9 | 4.3 | 0.00 | 0.00 | 0.00 | 34 | 1009.5 |
| 20260507200234 | 67 | 310 | 0.0 | 5.2 | 0.00 | 0.00 | 0.00 | 36 | 1009.6 |
| 20260507193219 | 69 | 360 | 0.9 | 6.1 | 0.00 | 0.00 | 0.00 | 37 | 1009.9 |
| 20260507190219 | 68 | 298 | 3.5 | 7.0 | 0.00 | 0.00 | 0.00 | 36 | 1010.2 |
| 20260507183220 | 67 | 35 | 0.9 | 7.8 | 0.00 | 0.00 | 0.00 | 38 | 1010.6 |
| 20260507180223 | 66 | 329 | 0.0 | 6.1 | 0.00 | 0.00 | 0.00 | 41 | 1010.9 |
| 20260507173222 | 65 | 304 | 4.3 | 7.0 | 0.00 | 0.00 | 0.00 | 39 | 1011.7 |
| 20260507170243 | 63 | 292 | 0.9 | 7.0 | 0.00 | 0.00 | 0.00 | 42 | 1012.2 |
| 20260507163227 | 62 | 271 | 1.7 | 10.4 | 0.00 | 0.00 | 0.00 | 46 | 1012.6 |
| 20260507160246 | 62 | 355 | 4.3 | 8.7 | 0.00 | 0.00 | 0.00 | 41 | 1013.1 |
| 20260507153250 | 60 | 19 | 1.7 | 7.0 | 0.00 | 0.00 | 0.00 | 42 | 1013.4 |
| 20260507150228 | 60 | 36 | 3.5 | 7.8 | 0.00 | 0.00 | 0.00 | 44 | 1013.8 |
| 20260507143228 | 57 | 360 | 2.6 | 7.0 | 0.00 | 0.00 | 0.00 | 48 | 1014.3 |
| 20260507140225 | 56 | 18 | 0.9 | 3.5 | 0.00 | 0.00 | 0.00 | 54 | 1014.8 |
| 20260507133244 | 54 | 20 | 0.9 | 3.5 | 0.00 | 0.01 | 0.00 | 55 | 1015.3 |
| 20260507130221 | 53 | 19 | 0.0 | 2.6 | 0.00 | 0.01 | 0.00 | 54 | 1015.2 |
| 20260507123221 | 53 | 19 | 0.0 | 4.3 | 0.00 | 0.06 | 0.00 | 55 | 1015.1 |
| 20260507120213 | 52 | 19 | 0.0 | 1.7 | 0.00 | 0.06 | 0.00 | 55 | 1015.0 |
| 20260507113234 | 52 | 19 | 1.7 | 7.0 | 0.00 | 0.11 | 0.00 | 53 | 1014.8 |
| 20260507110227 | 52 | 18 | 0.9 | 4.3 | 0.00 | 0.11 | 0.00 | 53 | 1014.7 |
| 20260507103222 | 52 | 19 | 1.7 | 6.1 | 0.00 | 0.11 | 0.00 | 55 | 1014.4 |
| 20260507100220 | 53 | 18 | 0.0 | 2.6 | 0.00 | 0.11 | 0.00 | 62 | 1013.9 |
| 20260507093236 | 54 | 18 | 0.0 | 4.3 | 0.00 | 0.11 | 0.00 | 68 | 1013.8 |
| 20260507090223 | 54 | 336 | 0.0 | 1.7 | 0.00 | 0.11 | 0.00 | 71 | 1013.6 |
| 20260507083221 | 54 | 336 | 0.0 | 4.3 | 0.00 | 0.11 | 0.00 | 71 | 1013.7 |
| 20260507080217 | 54 | 336 | 0.9 | 3.5 | 0.00 | 0.11 | 0.00 | 70 | 1013.7 |
| 20260507073252 | 55 | 336 | 0.0 | 4.3 | 0.00 | 0.11 | 0.00 | 70 | 1013.1 |
| 20260507070243 | 55 | 336 | 0.0 | 2.6 | 0.00 | 0.11 | 0.00 | 70 | 1013.0 |
| 20260507063219 | 55 | 336 | 0.0 | 1.7 | 0.00 | 0.11 | 0.00 | 71 | 1013.4 |
| 20260507060223 | 55 | 336 | 2.6 | 6.1 | 0.00 | 0.11 | 0.00 | 68 | 1013.9 |
| 20260507053223 | 56 | 327 | 0.9 | 4.3 | 0.00 | 0.11 | 0.00 | 69 | 1013.9 |
| 20260507050218 | 56 | 326 | 1.7 | 8.7 | 0.00 | 0.11 | 0.00 | 70 | 1013.4 |
| 20260507043219 | 56 | 346 | 1.7 | 7.0 | 0.00 | 0.11 | 0.00 | 73 | 1013.4 |
| 20260507040215 | 57 | 355 | 2.6 | 8.7 | 0.00 | 0.11 | 0.00 | 76 | 1013.3 |
| 20260507033232 | 58 | 343 | 1.7 | 7.8 | 0.00 | 0.11 | 0.11 | 74 | 1013.2 |
| 20260507030230 | 59 | 343 | 2.6 | 7.0 | 0.00 | 0.11 | 0.11 | 73 | 1012.8 |
| 20260507023226 | 59 | 342 | 2.6 | 7.0 | 0.00 | 0.11 | 0.11 | 71 | 1013.1 |
| 20260507020223 | 60 | 360 | 2.6 | 7.0 | 0.00 | 0.11 | 0.11 | 71 | 1012.6 |
| 20260507013222 | 61 | 345 | 2.6 | 8.7 | 0.00 | 0.11 | 0.11 | 70 | 1012.7 |
| 20260507010218 | 62 | 342 | 1.7 | 7.0 | 0.00 | 0.11 | 0.11 | 70 | 1011.7 |
| 20260507003233 | 63 | 329 | 0.0 | 4.3 | 0.00 | 0.11 | 0.11 | 71 | 1012.1 |
| 20260507000230 | 64 | 333 | 0.9 | 4.3 | 0.00 | 0.11 | 0.11 | 73 | 1011.7 |
| 20260506233225 | 65 | 333 | 1.7 | 7.0 | 0.00 | 0.11 | 0.11 | 73 | 1011.1 |
| 20260506230222 | 67 | 355 | 1.7 | 7.0 | 0.00 | 0.11 | 0.11 | 74 | 1010.7 |
| 20260506223221 | 68 | 360 | 2.6 | 7.8 | 0.00 | 0.11 | 0.11 | 74 | 1010.2 |
| 20260506220254 | 69 | 360 | 3.5 | 10.4 | 0.00 | 0.11 | 0.11 | 75 | 1010.1 |
| 20260506213232 | 71 | 32 | 3.5 | 6.1 | 0.00 | 0.11 | 0.11 | 73 | 1009.5 |